Wind_Speed
4 3 2 3 6 8 9 8 8 8 8 8 9 10 10 9 8 8 10 11 13 13 12 13 23 17 20 27 29 24 25 19 11 10 10 18 17 12 18 16 14 12 11 10 8
6 5 3 1 1 4 6 7 7 6 6 7 8 9 9 10 10 11 11 8 12 9 9 10 9 14 29 27 28 23 15 11 11 8 9 16 17 14 16 14 13 7 9 8 8
8 8 7 6 3 1 2 4 4 5 5 5 7 8 9 10 10 10 11 9 8 7 11 4 1 16 19 27 23 25 6 8 11 11 10 9 11 13 16 12 12 10 8 7 14
8 8 8 8 6 4 2 2 2 3 4 3 4 7 9 10 9 8 9 6 4 3 11 6 13 16 28 26 24 24 11 4 11 11 7 8 7 12 10 13 10 10 13 13 13
8 7 7 6 6 4 3 2 3 2 3 3 3 5 7 9 8 6 7 7 8 4 7 6 11 17 22 25 21 11 10 11 15 14 11 7 7 9 8 8 8 9 10 12 12
8 7 5 5 5 4 3 1 2 2 1 3 3 4 4 7 6 7 6 7 3 3 7 6 15 17 22 15 19 23 2 14 12 12 13 10 5 3 5 7 8 9 11 11 10
8 7 6 5 5 5 3 1 2 3 2 1 2 3 1 4 5 8 7 6 4 3 6 7 9 8 8 9 8 21 5 12 13 15 14 9 7 3 4 3 6 7 8 9 9
9 7 6 5 4 4 4 2 2 3 4 3 3 4 4 2 3 6 10 9 6 4 1 2 6 6 8 9 10 9 14 6 14 11 9 10 14 8 2 4 2 3 5 7 6
9 9 8 7 5 5 5 5 4 5 5 5 4 5 4 3 3 3 9 11 9 7 3 5 1 7 1 6 3 3 7 10 11 8 3 5 8 8 5 2 5 5 5 5 6
10 10 9 9 8 7 8 7 7 7 8 7 7 6 6 7 5 3 4 7 9 8 8 5 4 6 12 11 10 16 17 9 9 5 2 6 5 7 8 6 1 4 5 5 5
9 10 10 10 11 11 10 9 9 10 10 10 9 9 8 8 7 3 2 5 9 9 7 6 5 9 19 11 7 14 15 19 10 7 7 12 8 4 4 8 4 2 4 5 5
7 7 7 7 8 9 8 9 10 12 11 12 11 10 9 9 8 5 3 5 8 11 15 13 7 3 3 5 11 11 6 9 3 4 8 8 7 9 3 5 3 1 2 3 3
5 5 5 6 5 5 5 5 5 5 7 6 7 7 8 9 9 7 6 5 7 11 13 13 12 7 15 13 12 11 14 3 11 6 18 16 18 11 7 2 1 1 3 2 2
7 6 6 6 5 5 5 4 3 2 2 2 4 6 6 8 10 8 8 7 7 7 10 15 6 10 9 7 12 3 7 6 3 8 10 13 18 19 18 6 7 6 2 2 1
10 9 8 7 7 7 5 4 4 3 2 3 3 4 6 7 7 9 8 7 6 7 6 9 16 15 6 10 17 12 7 2 8 6 5 14 13 11 20 13 9 4 2 4 3
11 11 11 10 10 8 8 7 5 4 1 0 1 2 4 5 6 6 6 7 7 6 3 3 3 1 0 4 14 3 19 21 17 7 6 8 9 15 23 17 19 14 11 4 4
14 13 12 11 11 11 11 9 6 1 4 4 2 2 5 5 5 6 6 5 7 6 7 3 2 2 2 1 4 22 13 13 12 10 8 4 11 15 24 25 14 19 15 8 3
19 17 16 14 14 14 12 11 7 6 5 17 7 5 5 7 6 6 5 6 6 7 7 11 7 3 6 5 6 17 13 11 4 10 7 6 15 15 16 16 18 18 17 10 9
25 23 22 20 19 18 16 12 17 18 16 12 18 10 8 7 8 8 7 7 9 9 6 9 6 8 6 6 5 9 10 13 8 7 4 4 12 7 13 16 18 13 8 7 12
27 27 26 25 25 24 21 14 21 21 21 24 13 3 5 9 11 9 10 8 10 12 10 11 11 8 11 7 7 8 8 12 11 13 5 7 8 7 13 16 18 19 15 10 10
26 29 27 29 29 28 23 17 23 26 25 24 24 20 16 16 17 19 15 12 12 12 15 15 14 12 15 8 10 10 8 5 10 16 12 4 10 15 14 18 25 23 20 15 12
24 28 26 31 30 29 25 22 26 31 32 24 26 27 24 25 25 20 18 24 15 20 24 18 20 23 18 10 11 8 12 9 11 15 14 6 16 15 18 18 25 26 29 25 16
25 25 24 27 27 27 25 26 28 32 34 22 24 28 30 32 29 28 26 25 25 30 29 24 22 22 21 7 13 18 13 14 18 16 16 9 16 12 14 19 23 25 27 31 29
26 27 27 27 28 30 28 28 30 37 33 29 25 30 30 30 31 31 33 33 34 37 38 32 26 25 24 22 20 20 23 15 19 27 23 16 14 25 27 28 30 30 31 31 26
29 33 24 26 31 31 30 32 33 38 32 32 30 29 29 29 31 34 35 43 40 41 42 35 27 27 29 24 32 28 22 24 15 11 27 28 20 21 23 22 27 33 39 39 36
28 27 24 27 26 28 32 34 34 36 35 32 31 32 36 35 35 36 35 37 44 42 36 32 32 31 32 30 33 39 36 32 27 25 25 37 35 30 39 42 44 51 51 47 38
34 32 30 33 31 31 33 36 36 40 40 36 29 30 34 34 33 31 33 35 38 40 42 39 32 32 32 34 35 37 46 42 44 39 38 37 45 50 51 54 53 51 54 53 48
Wind_Direction
165 150 102 47 46 51 50 54 66 83 97 112 109 103 102 108 118 102 91 89 96 112 136 96 99 115 95 96 77 68 66 91 32 53 43 71 86 128 141 145 134 123 138 139 133
223 221 228 240 6 39 44 45 49 66 91 111 117 123 106 109 110 109 103 112 106 125 116 102 105 99 81 89 79 83 77 14 23 78 36 63 79 111 153 134 136 154 139 145 131
236 234 236 241 244 314 23 30 46 61 78 106 127 135 134 130 125 106 101 115 96 115 84 94 13 95 104 79 85 89 56 24 23 55 91 78 82 92 131 154 167 175 177 135 130
235 232 229 232 231 244 279 342 14 67 78 91 113 126 144 149 135 117 109 134 105 28 67 352 66 66 73 89 80 87 5 32 51 61 84 108 86 95 101 133 150 154 147 137 134
233 229 228 218 223 224 248 289 319 41 56 62 89 114 149 160 176 163 128 120 121 19 13 19 77 76 102 93 74 55 5 55 55 48 54 63 76 83 96 109 120 133 131 134 135
228 223 207 197 190 199 234 229 281 291 8 4 16 70 115 155 178 199 165 151 163 347 49 326 72 56 93 105 104 111 195 74 51 66 51 56 81 61 82 101 129 138 137 141 136
212 214 205 187 177 164 182 220 232 248 258 276 334 2 29 163 162 199 202 182 172 64 0 10 70 68 109 132 119 129 212 103 92 63 38 70 114 140 119 112 135 139 136 141 139
224 219 220 215 205 197 187 217 222 242 253 261 300 318 322 265 163 179 181 189 178 164 12 22 135 121 186 174 204 141 196 125 95 81 46 42 52 60 138 161 175 180 149 151 158
232 232 231 233 231 234 237 234 243 249 254 251 263 279 289 271 264 187 180 179 183 179 184 270 157 163 118 339 147 21 95 91 72 85 54 32 98 76 71 105 195 199 201 179 173
236 239 237 243 248 249 252 249 252 255 254 254 256 275 285 281 264 236 189 185 187 196 197 202 189 136 11 346 48 59 53 47 40 90 79 116 65 83 93 46 272 221 229 221 202
235 239 241 241 245 246 248 249 250 250 250 257 258 261 278 276 258 248 226 179 177 173 191 202 88 15 66 64 52 44 18 360 64 53 148 251 234 110 80 101 83 159 226 232 228
213 216 222 227 231 237 239 234 236 262 250 254 259 264 260 247 246 240 213 181 181 173 173 113 68 34 303 51 91 36 156 344 46 74 354 337 353 127 116 98 72 91 160 189 222
190 188 185 188 188 191 205 221 243 235 250 255 254 246 237 227 223 219 211 190 193 178 205 144 157 254 302 135 83 14 302 271 11 37 71 15 18 49 20 54 144 102 313 238 220
198 194 197 200 195 198 191 196 218 228 218 254 239 236 228 221 219 213 217 197 178 217 202 163 85 285 255 174 120 1 273 248 114 328 19 358 348 352 333 303 254 115 150 282 295
212 208 207 204 205 202 194 233 215 216 127 193 213 227 226 221 217 212 207 202 193 201 177 183 163 231 242 182 169 198 350 14 249 81 38 327 326 304 328 258 199 6 34 122 156
229 223 218 216 216 216 215 200 215 225 242 151 194 172 183 186 207 179 190 202 204 197 207 239 51 119 177 225 221 222 95 86 85 55 21 320 326 321 308 319 211 147 350 9 135
233 230 228 221 222 222 227 216 208 169 300 146 160 209 195 179 168 173 159 177 186 177 180 183 99 48 317 303 113 146 144 73 1 271 209 71 309 278 296 337 344 10 335 304 322
236 234 231 231 227 227 227 222 177 165 97 294 241 222 206 207 196 198 186 195 176 194 210 183 147 265 254 225 175 172 185 108 7 12 17 345 274 290 313 328 331 315 309 278 282
236 239 238 239 238 237 234 218 199 198 159 191 270 226 220 237 224 210 207 203 204 201 205 206 196 236 241 214 224 196 216 173 213 148 105 185 218 284 292 290 284 310 352 263 268
236 237 240 239 240 240 239 218 226 238 227 213 236 248 314 321 310 259 254 237 239 224 212 225 208 241 264 250 241 235 241 206 161 136 122 266 285 240 247 262 292 299 317 335 265
237 234 231 237 238 240 242 227 223 236 238 228 224 230 191 191 252 286 295 273 265 257 234 219 226 207 242 249 268 252 226 224 234 176 184 262 298 294 254 249 287 302 309 327 315
242 239 227 233 235 237 235 228 228 239 247 234 230 229 228 196 194 209 247 266 243 256 252 234 231 216 230 254 299 286 246 212 235 224 219 299 291 299 234 261 280 293 298 292 285
239 242 232 234 234 235 230 225 230 238 246 237 234 223 222 229 214 194 215 231 244 250 259 249 245 250 251 227 227 254 285 254 231 199 184 244 250 218 243 258 272 275 276 281 284
238 240 229 228 228 231 236 231 227 241 242 248 237 245 238 237 238 221 222 222 229 236 246 254 241 245 246 200 204 208 222 248 258 228 205 201 275 238 243 251 256 257 264 267 271
237 240 241 230 230 228 230 232 236 243 243 240 242 242 244 238 233 236 225 240 247 244 249 258 255 243 247 232 214 216 199 193 213 252 220 199 245 268 268 259 253 256 262 265 272
241 246 247 250 241 242 241 240 242 249 251 241 240 239 241 241 241 242 242 235 249 267 272 261 259 252 246 242 230 230 228 218 217 218 205 212 214 252 255 254 251 258 263 265 269
236 237 241 245 242 240 238 241 240 245 248 250 246 246 251 253 254 255 255 256 257 262 271 272 265 260 255 254 249 240 235 233 232 226 224 221 220 228 236 248 252 250 263 270 271
Height
5907 5907 5907 5907 5907 5907 5906 5906 5906 5905 5905 5905 5905 5906 5906 5906 5907 5908 5909 5910 5911 5910 5905 5906 5908 5906 5903 5901 5901 5900 5900 5900 5905 5905 5904 5902 5901 5902 5906 5910 5913 5916 5918 5919 5921
5908 5908 5908 5909 5909 5908 5908 5908 5907 5907 5906 5907 5907 5908 5908 5909 5909 5910 5912 5911 5912 5909 5908 5913 5912 5912 5909 5906 5905 5905 5909 5909 5908 5907 5904 5904 5906 5905 5909 5912 5917 5918 5920 5922 5923
5907 5908 5909 5909 5909 5909 5909 5909 5909 5908 5908 5908 5908 5909 5910 5911 5911 5912 5913 5913 5911 5911 5913 5911 5912 5914 5911 5911 5908 5907 5914 5914 5910 5910 5910 5910 5909 5909 5911 5915 5917 5919 5921 5923 5925
5906 5907 5908 5909 5909 5909 5909 5909 5910 5910 5909 5909 5909 5910 5911 5912 5914 5913 5914 5914 5913 5911 5915 5909 5913 5909 5908 5915 5916 5913 5918 5916 5914 5913 5913 5913 5912 5913 5914 5917 5918 5920 5922 5924 5927
5905 5906 5907 5909 5909 5909 5910 5910 5910 5910 5911 5910 5911 5911 5912 5913 5914 5914 5915 5914 5914 5912 5912 5914 5916 5916 5917 5918 5917 5921 5921 5919 5915 5913 5915 5915 5914 5916 5917 5918 5921 5922 5924 5927 5929
5904 5905 5906 5907 5909 5909 5909 5911 5911 5911 5911 5911 5911 5912 5914 5915 5915 5916 5916 5916 5916 5915 5917 5917 5916 5919 5920 5916 5918 5913 5919 5919 5918 5917 5917 5917 5919 5919 5920 5921 5923 5925 5928 5930 5931
5904 5905 5905 5907 5908 5909 5910 5910 5911 5912 5912 5912 5912 5913 5913 5915 5915 5916 5917 5918 5917 5916 5916 5914 5913 5917 5915 5918 5914 5914 5920 5919 5921 5921 5920 5921 5922 5922 5923 5924 5926 5927 5930 5932 5933
5903 5904 5905 5906 5907 5908 5909 5910 5911 5911 5912 5913 5914 5913 5913 5914 5915 5915 5916 5918 5919 5920 5917 5917 5918 5920 5918 5919 5912 5919 5924 5924 5921 5922 5922 5923 5921 5923 5924 5926 5927 5929 5931 5933 5935
5901 5903 5904 5905 5906 5907 5908 5908 5909 5910 5911 5912 5914 5914 5914 5914 5915 5916 5917 5918 5918 5919 5918 5917 5920 5923 5925 5921 5921 5924 5921 5922 5922 5923 5925 5926 5926 5926 5925 5927 5930 5930 5932 5934 5936
5900 5901 5902 5903 5904 5905 5906 5907 5908 5909 5910 5911 5912 5915 5914 5915 5915 5915 5916 5917 5919 5919 5918 5918 5918 5923 5925 5922 5923 5923 5923 5924 5923 5923 5925 5926 5927 5927 5928 5928 5930 5931 5932 5934 5936
5898 5899 5900 5900 5901 5903 5904 5905 5908 5908 5908 5909 5911 5912 5912 5913 5914 5914 5915 5917 5918 5919 5919 5920 5920 5921 5924 5926 5925 5923 5921 5925 5924 5925 5926 5926 5923 5924 5930 5930 5931 5932 5933 5935 5937
5897 5898 5898 5898 5899 5900 5902 5903 5904 5906 5906 5906 5907 5909 5910 5910 5912 5913 5915 5916 5917 5918 5917 5919 5921 5923 5926 5927 5928 5926 5923 5927 5919 5927 5928 5929 5912 5922 5926 5930 5932 5933 5933 5935 5936
5896 5896 5896 5897 5898 5899 5900 5901 5902 5902 5904 5905 5905 5906 5907 5909 5910 5912 5913 5915 5917 5916 5918 5917 5919 5925 5922 5925 5925 5926 5925 5928 5927 5929 5930 5925 5925 5926 5929 5928 5932 5933 5934 5935 5936
5895 5895 5896 5897 5899 5899 5899 5900 5901 5902 5903 5904 5904 5905 5906 5907 5909 5910 5911 5914 5915 5917 5916 5917 5919 5922 5922 5923 5925 5928 5926 5927 5928 5926 5927 5929 5930 5928 5926 5929 5930 5931 5933 5933 5934
5893 5894 5895 5896 5897 5897 5899 5899 5900 5901 5902 5904 5903 5904 5904 5907 5908 5908 5910 5911 5913 5914 5916 5917 5917 5920 5920 5922 5921 5924 5924 5924 5925 5930 5929 5928 5929 5930 5930 5925 5924 5929 5933 5934 5934
5891 5892 5893 5894 5895 5896 5897 5898 5899 5901 5900 5901 5902 5903 5904 5905 5906 5907 5908 5910 5912 5913 5915 5916 5916 5918 5920 5921 5921 5924 5926 5926 5929 5930 5926 5927 5928 5928 5926 5925 5918 5918 5930 5931 5933
5888 5889 5890 5892 5893 5894 5895 5896 5899 5899 5900 5902 5902 5903 5903 5904 5905 5906 5908 5909 5911 5913 5913 5915 5916 5918 5920 5921 5923 5923 5924 5924 5926 5925 5923 5928 5931 5928 5925 5921 5919 5915 5929 5929 5931
5884 5886 5888 5889 5890 5891 5892 5896 5898 5898 5896 5898 5899 5901 5903 5903 5904 5906 5907 5909 5910 5911 5913 5913 5915 5916 5918 5920 5922 5922 5923 5923 5925 5926 5929 5930 5929 5928 5925 5924 5925 5931 5932 5930 5929
5880 5881 5883 5885 5886 5887 5890 5893 5894 5892 5896 5898 5896 5900 5901 5902 5903 5904 5906 5908 5909 5910 5912 5911 5912 5914 5917 5919 5921 5923 5923 5923 5924 5928 5929 5928 5929 5928 5927 5925 5929 5931 5931 5931 5928
5873 5875 5878 5879 5881 5883 5886 5890 5889 5890 5892 5894 5896 5898 5899 5901 5902 5902 5903 5905 5906 5908 5909 5910 5911 5913 5914 5917 5919 5920 5922 5923 5923 5926 5929 5929 5928 5927 5926 5924 5924 5926 5929 5930 5928
5867 5869 5872 5872 5875 5877 5881 5885 5885 5884 5887 5890 5892 5892 5894 5898 5902 5902 5903 5903 5903 5904 5905 5908 5910 5912 5912 5915 5916 5918 5919 5922 5923 5924 5924 5927 5927 5925 5923 5920 5921 5922 5925 5928 5928
5859 5860 5865 5865 5869 5871 5875 5878 5879 5878 5878 5884 5886 5889 5891 5892 5894 5898 5900 5899 5900 5901 5901 5904 5905 5905 5907 5911 5912 5915 5917 5917 5920 5924 5925 5926 5925 5924 5920 5920 5920 5920 5921 5924 5925
5851 5853 5857 5858 5862 5864 5867 5870 5871 5871 5872 5877 5879 5881 5884 5886 5890 5893 5890 5894 5896 5895 5895 5899 5902 5904 5905 5910 5910 5910 5915 5916 5916 5917 5919 5922 5919 5919 5918 5916 5916 5917 5918 5919 5921
5845 5845 5847 5850 5853 5856 5860 5862 5863 5862 5867 5870 5872 5875 5878 5881 5883 5888 5884 5885 5886 5888 5890 5891 5895 5897 5899 5901 5902 5904 5905 5909 5911 5914 5916 5920 5916 5908 5908 5907 5908 5909 5909 5914 5917
5835 5835 5843 5844 5845 5848 5850 5853 5855 5854 5858 5861 5864 5868 5870 5873 5874 5876 5880 5875 5878 5880 5879 5883 5888 5891 5892 5899 5895 5897 5899 5899 5899 5905 5910 5914 5909 5899 5894 5896 5894 5896 5899 5905 5910
5832 5833 5838 5837 5841 5844 5844 5845 5848 5847 5849 5852 5856 5858 5857 5861 5864 5866 5871 5873 5868 5868 5872 5876 5879 5882 5884 5888 5892 5892 5894 5892 5893 5894 5896 5901 5903 5894 5889 5886 5890 5887 5890 5896 5903
5822 5826 5828 5829 5832 5835 5836 5837 5841 5838 5840 5843 5849 5853 5852 5855 5858 5862 5863 5864 5865 5865 5862 5865 5870 5872 5875 5877 5881 5885 5885 5886 5885 5886 5886 5888 5888 5886 5884 5880 5878 5881 5883 5886 5893